User: anonymous   Login
Location: Homewood
(41.1836°S, 175.9581°E)
Time: 14:28:47
(UTC+00:00)
Language:

BREEZE M DEB (TANK) - Orbit

View from above orbital plane
View from above orbital plane
View from above satellite
View from above satellite

Ground track
Ground track

The orbit data is extracted from the following two-line orbital elements,

1 28359U 04022B   24169.53926807  .00003770  00000-0  52815-3 0  9998
2 28359  49.5518 332.7842 4554612 278.6300  33.9966  6.38741957445473
Epoch (UTC): 17 June 2024 12:56:32
Eccentricity: 0.4554612
inclination: 49.5518°
perigee height: 303 km
apogee height: 11480 km
right ascension of ascending node: 332.7842°
argument of perigee: 278.6300°
revolutions per day: 6.38741957
mean anomaly at epoch: 33.9966°
orbit number at epoch: 44547

The dashed part of the orbit path shows where the satellite is in the earth's shadow,  

DLR